User: anonymous   Login
Location: Asheville, NC
(35.6000°N, 82.5500°W)
Time: 21:53:57
(UTC-04:00)
Language:

JUGNU - Orbit

View from above orbital plane
View from above orbital plane
View from above satellite
View from above satellite

Ground track
Ground track

The orbit data is extracted from the following two-line orbital elements,

1 37839U 11058B   18114.87492272  .00115774  00000-0  59570-1 0  9993
2 37839  19.9618   0.5132 0018795  17.1310  68.2411 14.13384346337822
Epoch (UTC): 24 April 2018 20:59:53
Eccentricity: 0.0018795
inclination: 19.9618°
perigee height: 834 km
apogee height: 861 km
right ascension of ascending node: 0.5132°
argument of perigee: 17.1310°
revolutions per day: 14.13384346
mean anomaly at epoch: 68.2411°
orbit number at epoch: 33782

The dashed part of the orbit path shows where the satellite is in the earth's shadow,  

DLR